This demonstration page uses our WeatherBlox Daily Observations layout. Learn more.

Left ArrowRight Arrow

Hourly Observations for March 9, 2022

Temp ( °F °C ) Dew Point ( °F °C ) Humidity (%) Winds ( mph kmh ) Pressure ( in mb ) Visibility ( mi km ) Precip ( " mm )
12:15 am 00:15 Clear 18 -8 14 -10 86 86 Calm 30.30 1026 10 16 0.00 0.00
12:35 am 00:35 Clear 18 -8 14 -10 86 86 NNE 3 6 30.31 1026 10 16 0.00 0.00
12:55 am 00:55 Clear 18 -8 14 -10 86 86 Calm 30.30 1026 10 16 0.00 0.00
1:15 am 01:15 Clear 18 -8 14 -10 86 86 Calm 30.30 1026 10 16 0.00 0.00
1:35 am 01:35 Clear 18 -8 14 -10 86 86 Calm 30.30 1026 10 16 0.00 0.00
1:55 am 01:55 Clear 14 -10 12 -11 92 92 NNE 6 9 30.32 1027 10 16 0.00 0.00
2:15 am 02:15 Clear 14 -10 12 -11 92 92 NNE 7 11 30.32 1027 10 16 0.00 0.00
2:35 am 02:35 Clear 14 -10 12 -11 92 92 NNE 6 9 30.30 1026 10 16 0.00 0.00
2:55 am 02:55 Clear 14 -10 12 -11 92 92 NNE 5 7 30.30 1026 10 16 0.00 0.00
3:15 am 03:15 Clear 14 -10 10 -12 85 85 N 3 6 30.30 1026 10 16 0.00 0.00
3:35 am 03:35 Partly Cloudy 12 -11 9 -13 85 85 W 5 7 30.33 1027 10 16 0.00 0.00
3:55 am 03:55 Mostly Cloudy 16 -9 12 -11 86 86 Calm 30.30 1026 10 16 0.00 0.00
4:15 am 04:15 Cloudy 18 -8 14 -10 86 86 N 3 6 30.28 1025 10 16 0.00 0.00
4:35 am 04:35 Mostly Cloudy 18 -8 14 -10 86 86 NE 8 13 30.26 1025 10 16 0.00 0.00
4:55 am 04:55 Partly Cloudy 18 -8 14 -10 86 86 NNE 7 11 30.26 1025 10 16 0.00 0.00
5:15 am 05:15 Partly Cloudy 19 -7 18 -8 93 93 NE 5 7 30.27 1025 10 16 0.00 0.00
5:35 am 05:35 Cloudy 19 -7 16 -9 86 86 NE 3 6 30.29 1026 10 16 0.00 0.00
5:55 am 05:55 Cloudy 21 -6 18 -8 86 86 NE 6 9 30.28 1025 10 16 0.00 0.00
6:15 am 06:15 Cloudy 21 -6 16 -9 80 80 NE 8 13 30.28 1025 10 16 0.00 0.00
6:35 am 06:35 Cloudy 21 -6 16 -9 80 80 ENE 10 17 30.28 1025 10 16 0.00 0.00
6:55 am 06:55 Cloudy 21 -6 16 -9 80 80 ENE 10 17 30.29 1026 10 16 0.00 0.00
7:15 am 07:15 Cloudy 21 -6 16 -9 80 80 ENE 10 17 30.29 1026 10 16 0.00 0.00
7:35 am 07:35 Cloudy 21 -6 14 -10 74 74 ENE 9 15 30.31 1026 10 16 0.00 0.00
7:55 am 07:55 Cloudy 21 -6 14 -10 74 74 ENE 10 17 30.31 1026 10 16 0.00 0.00
8:15 am 08:15 Cloudy 21 -6 16 -9 80 80 ENE 13 20 30.32 1027 10 16 0.00 0.00
8:35 am 08:35 Cloudy 21 -6 16 -9 80 80 ENE 15 24 30.33 1027 10 16 0.00 0.00
8:55 am 08:55 Cloudy 23 -5 16 -9 74 74 ENE 17 28 30.32 1027 10 16 0.00 0.00
9:15 am 09:15 Cloudy 23 -5 16 -9 74 74 E 14 22 30.32 1027 10 16 0.00 0.00
9:35 am 09:35 Cloudy 23 -5 16 -9 74 74 E 17 28 30.32 1027 10 16 0.00 0.00
9:55 am 09:55 Cloudy 25 -4 18 -8 74 74 ENE 15 24 30.31 1026 10 16 0.00 0.00
10:15 am 10:15 Cloudy 25 -4 16 -9 69 69 ENE 15 24 30.32 1027 10 16 0.00 0.00
10:35 am 10:35 Cloudy 25 -4 16 -9 69 69 ENE 15 24 30.31 1026 10 16 0.00 0.00
10:55 am 10:55 Cloudy 25 -4 16 -9 69 69 E 13 20 30.31 1026 10 16 0.00 0.00
11:15 am 11:15 Cloudy 25 -4 16 -9 69 69 ENE 14 22 30.31 1026 10 16 0.00 0.00
11:35 am 11:35 Cloudy 25 -4 18 -8 74 74 ENE 13 20 30.31 1026 10 16 0.00 0.00
11:55 am 11:55 Cloudy 25 -4 16 -9 69 69 ENE 13 20 30.30 1026 10 16 0.00 0.00
12:15 pm 12:15 Cloudy with Light Snow 23 -5 14 -10 68 68 NE 15 24 30.30 1026 7 11 0.00 0.00
12:35 pm 12:35 Cloudy with Light Snow 23 -5 14 -10 68 68 ENE 13 20 30.29 1026 10 16 0.00 0.00
12:55 pm 12:55 Cloudy 25 -4 14 -10 63 63 ENE 12 19 30.27 1025 10 16 0.00 0.00
1:15 pm 13:15 Cloudy 25 -4 14 -10 63 63 ENE 13 20 30.27 1025 10 16 0.00 0.00
1:35 pm 13:35 Cloudy 25 -4 12 -11 59 59 NE 16 26 30.26 1025 10 16 0.00 0.00
1:55 pm 13:55 Cloudy with Light Snow 23 -5 14 -10 68 68 NE 13 20 30.27 1025 10 16 0.00 0.00
2:15 pm 14:15 Cloudy with Light Snow 23 -5 14 -10 68 68 ENE 15 24 30.27 1025 10 16 0.00 0.00
2:35 pm 14:35 Cloudy with Light Snow 23 -5 14 -10 68 68 NE 14 22 30.27 1025 10 16 0.00 0.00
2:55 pm 14:55 Cloudy with Light Snow 23 -5 14 -10 68 68 NE 15 24 30.26 1025 10 16 0.00 0.00
3:15 pm 15:15 Cloudy with Light Snow 23 -5 14 -10 68 68 ENE 17 28 30.25 1024 10 16 0.00 0.00
3:35 pm 15:35 Cloudy 23 -5 14 -10 68 68 NE 15 24 30.25 1024 10 16 0.00 0.00
3:55 pm 15:55 Cloudy 23 -5 14 -10 68 68 ENE 15 24 30.25 1024 10 16 0.00 0.00
4:15 pm 16:15 Cloudy 21 -6 14 -10 74 74 NE 17 28 30.27 1025 10 16 0.00 0.00
4:35 pm 16:35 Cloudy with Light Snow 21 -6 16 -9 80 80 NE 15 24 30.28 1025 3 5 0.00 0.00
4:55 pm 16:55 Cloudy with Light Snow 21 -6 18 -8 86 86 NNE 12 19 30.29 1026 2 2 0.00 0.00
5:15 pm 17:15 Cloudy with Light Snow 21 -6 18 -8 86 86 NE 14 22 30.30 1026 1 2 0.00 0.00
5:35 pm 17:35 Cloudy with Light Snow 21 -6 18 -8 86 86 NE 13 20 30.31 1026 1 2 0.00 0.00
5:55 pm 17:55 Cloudy with Light Snow 21 -6 18 -8 86 86 NE 15 24 30.31 1026 1 1 0.00 0.00
6:15 pm 18:15 Cloudy with Light Snow 21 -6 18 -8 86 86 NE 9 15 30.31 1026 1 1 0.00 0.00
6:35 pm 18:35 Cloudy with Light Snow 19 -7 18 -8 93 93 NE 10 17 30.33 1027 2 3 0.00 0.00
6:55 pm 18:55 Cloudy with Light Snow 19 -7 16 -9 86 86 NE 12 19 30.33 1027 2 3 0.00 0.00
7:15 pm 19:15 Cloudy with Light Snow 19 -7 18 -8 93 93 ENE 8 13 30.34 1027 3 4 0.00 0.00
7:35 pm 19:35 Cloudy with Light Snow 19 -7 16 -9 86 86 NE 10 17 30.35 1028 7 11 0.00 0.00
7:55 pm 19:55 Cloudy with Light Snow 19 -7 14 -10 79 79 NE 10 17 30.36 1028 4 6 0.00 0.00
8:15 pm 20:15 Cloudy with Light Snow 19 -7 14 -10 79 79 NE 10 17 30.36 1028 3 5 0.00 0.00
8:35 pm 20:35 Cloudy with Light Snow 18 -8 14 -10 86 86 NE 14 22 30.38 1029 4 6 0.00 0.00
8:55 pm 20:55 Cloudy with Light Snow 18 -8 12 -11 79 79 ENE 13 20 30.38 1029 5 8 0.00 0.00
9:15 pm 21:15 Cloudy 18 -8 12 -11 79 79 NE 14 22 30.38 1029 10 16 0.00 0.00
9:35 pm 21:35 Cloudy with Light Snow 18 -8 12 -11 79 79 ENE 15 24 30.37 1028 10 16 0.00 0.00
9:55 pm 21:55 Cloudy with Light Snow 18 -8 12 -11 79 79 ENE 14 22 30.37 1028 3 5 0.00 0.00
10:15 pm 22:15 Cloudy with Light Snow 18 -8 14 -10 86 86 NE 12 19 30.38 1029 4 6 0.00 0.00
10:35 pm 22:35 Cloudy with Light Snow 18 -8 14 -10 86 86 NE 14 22 30.39 1029 2 3 0.00 0.00
10:55 pm 22:55 Cloudy with Light Snow 18 -8 14 -10 86 86 NNE 10 17 30.40 1029 2 2 0.00 0.00
11:15 pm 23:15 Cloudy with Light Snow 18 -8 14 -10 86 86 NNE 12 19 30.41 1030 2 2 0.00 0.00
11:35 pm 23:35 Cloudy with Light Snow 18 -8 14 -10 86 86 NE 13 20 30.40 1029 2 2 0.00 0.00
11:55 pm 23:55 Cloudy with Light Snow 18 -8 14 -10 86 86 NE 14 22 30.40 1029 1 2 0.00 0.00

Powered by AerisWeather